Powrót do katalogu

COSMOS 249 DEB

AktywnyLEO
NORAD 3911·DEBRIS·🇷🇺 Russia

Wystrzelony Oct 20, 1968 z Baikonur Cosmodrome

Loading…

Następne Przeloty (najbliższe 24 godziny)

TLE

ŚwieżeSource: Space-Track

Epoka: Sep 14, 2026, 07:36 UTC

1 03911U 68091BP  26257.31684673  .00002267  00000-0  58759-3 0  9992
2 03911  62.9176 222.9528 0790061  90.9090 278.2450 13.43370369679297

Śledź COSMOS 249 DEB w czasie rzeczywistym z AllMySat

Download on the App Store